Location: Hac?musa Deresi
(39.1694°N, 32.2508°E)
Time: 10:51:33
(UTC+00:00)

Cosmos 2369 Rocket - Pass Details

Date: 22 April 2026
Orbit: 829 x 850 km, 71.0° (Epoch: 20 May)

Event Time Altitude Azimuth Distance (km) Brightness Sun altitude
Rises 20:08:16 0° 322° (NW) 3,376 6.4 -33.3°
Reaches altitude 10° 20:11:15 10° 306° (NW) 2,438 5.3 -33.6°
Enters shadow 20:14:52 21° 266° (W) 1,793 4.1 -33.9°
